Regional Weather Roundup
Issued by NWS New Orleans/Baton Rouge, LA

Home | Current Version | Previous Version | Graphics & Text | Print | Product List | Glossary On
Versions: 1 2 3 4 5 6 7 8 9 10 11 12 13 14 15 16 17 18 19 20 21 22 23 24 25 26 27 28 29 30 31 32 33 34 35 36 37 38 39 40 41 42 43 44 45 46 47 48 49 50
237
ASUS44 KLIX 261811
RWRLIX
NEW ORLEANS REGIONAL WEATHER ROUNDUP
NATIONAL WEATHER SERVICE NEW ORLEANS LA
100 PM CDT THU MAR 26 2015

NOTE: "FAIR" INDICATES FEW OR NO CLOUDS BELOW 12,000 FEET WITH NO
      SIGNIFICANT WEATHER AND/OR OBSTRUCTIONS TO VISIBILITY.
      SKY/WX - SKY CONDITION AND SIGNIFICANT WEATHER.
      TMP - AIR TEMPERATURE.     DP    - DEWPOINT TEMPERATURE.
      RH  - RELATIVE HUMIDITY.   PRES  - PRESSURE.
      HI  - HEAT INDEX.          WCI   - WIND CHILL INDEX.

*  THESE STATIONS ARE NOT NWS OR FAA STATIONS AND ARE NOT UNDER
   NWS QUALITY CONTROL.

LAZ038-040-048-061>063-065>067-069-261900-
SOUTHEAST LOUISIANA

CITY           SKY/WX    TMP DP  RH WIND       PRES   REMARKS
N.O. AUDUBON     N/A     64  64 100 MISG        N/A
6HR MIN TEMP:  64; 6HR MAX TEMP:  70; 6HR PCP:  0.20;

N.O. INTL ARPT LGT RAIN  65  59  81 S9        29.92S
6HR MIN TEMP:  65; 6HR MAX TEMP:  70; 6HR PCP:  0.25;

N.O. LAKEFRONT CLOUDY    70  61  73 S15       29.90F
6HR MIN TEMP:  70; 6HR MAX TEMP:  72; 6HR PCP:  0.15;

SLIDELL        CLOUDY    70  68  93 CALM      29.88F
6HR MIN TEMP:  63; 6HR MAX TEMP:  70; 6HR PCP:  0.87;

BATON ROUGE    CLOUDY    71  66  84 S9        29.87F
6HR MIN TEMP:  62; 6HR MAX TEMP:  72;

BOOTHVILLE     LGT RAIN  69  66  90 W7        29.92F
6HR MIN TEMP:  62; 6HR MAX TEMP:  70; 6HR PCP:  0.40;

BELLE CHASSE   RAIN      66  61  84 SW7       29.91F FOG
6HR MIN TEMP:  66; 6HR MAX TEMP:  70;

BOGALUSA*        N/A     72  65  81 S7        29.92S
6HR MIN TEMP:  61; 6HR MAX TEMP:  72;

GALLIANO*      CLOUDY    65  63  96 MISG      29.91F
6HR MIN TEMP:  65; 6HR MAX TEMP:  72; 6HR PCP:  0.45;

NEW ROADS*     MOCLDY    74  63  69 E3        29.87F
6HR MIN TEMP:  59; 6HR MAX TEMP:  74;

GONZALES*      MOCLDY    67  66  96 S7        29.89F
6HR MIN TEMP:  63; 6HR MAX TEMP:  69;

HAMMOND*       CLOUDY    72  66  83 SW3       29.90F
HOUMA*         PTSUNNY   64  63  94 CALM      29.90F FOG
PORT FOURCHON* CLOUDY    68  64  88 N6        29.94F FOG

$$

MSZ070-080>082-261900-
SOUTHERN MISSISSIPPI

CITY           SKY/WX    TMP DP  RH WIND       PRES   REMARKS
MCCOMB         CLOUDY    73  63  70 S5        29.88F
6HR MIN TEMP:  61; 6HR MAX TEMP:  73;

GULFPORT       CLOUDY    69  66  90 E9        29.88F
6HR MIN TEMP:  66; 6HR MAX TEMP:  69; 6HR PCP:  1.31;

BILOXI         LGT RAIN  66  64  94 E8        29.89F FOG
6HR MIN TEMP:  65; 6HR MAX TEMP:  69; 6HR PCP:  1.02;

PASCAGOULA     LGT RAIN  68  67  96 SE7       29.91F FOG
6HR MIN TEMP:  64; 6HR MAX TEMP:  68; 6HR PCP:  0.06;


$$

COASTAL OBSERVATIONS
LAKE AND NEARSHORE STATIONS

STATION/POSITION TIME  TEMP    WIND        PRES    WAVE
                       AIR SEA DIR/SP/G            HT/PER
                 (UTC) (F)     (DEG/KT/KT) (MB)    (FT/S)
PASCAGOULA       1700   69      70/  2/  5 1013.1
WAVELAND YACHT   1700   69 71  170/  5/  7 1013.2
GRAND ISLE       1700   69 71  230/  5/  6 1013.0
SOUTHWEST PASS   1700   62 51  310/  9/ 10 1014.4
NEW CANAL        1700   69     210/  8/ 12 1013.4
SHELL BEACH      1700   68 72  230/  8/ 10 1013.9

OFFSHORE STATIONS

STATION/POSITION TIME  TEMP    WIND        PRES    WAVE
                       AIR SEA DIR/SP/G            HT/PER
                 (UTC) (F)     (DEG/KT/KT) (MB)    (FT/S)
64 S DAUPHIN ISL 1750   69 72  260/  8/ 10 1013.0    3/ 6

$$




USA.gov is the U.S. government's official web portal to all federal, state and local government web resources and services.